SHT11N EGLL-EGJB

Flight info

Callsign SHT11N
Flight time N/A
Altitude 21000
Route GASGU N866 SAM/N0370F200 N63 LELNA
Aircraft A319/M-SDE3FGHIRWY/LB1

Departure

Time N/A
Airport London Heathrow Airport (EGLL)

Arrival

Time 2026-04-22 17:08
Airport Guernsey Airport (EGJB)
Time Latitude Longitude Altitude Speed Heading
2026-04-22 17:05 49.43249 -2.76633 957 ft 103 kts 109°
2026-04-22 17:05 49.42997 -2.75554 992 ft 123 kts 99°
2026-04-22 17:05 49.42760 -2.74239 1369 ft 130 kts 108°
2026-04-22 17:05 49.42407 -2.72899 1674 ft 138 kts 110°
2026-04-22 17:06 49.42266 -2.71512 1937 ft 139 kts 80°
2026-04-22 17:06 49.42636 -2.70159 1438 ft 138 kts 72°
2026-04-22 17:06 49.42938 -2.68824 1270 ft 127 kts 76°
2026-04-22 17:06 49.43149 -2.67538 1109 ft 125 kts 79°
2026-04-22 17:07 49.43299 -2.66188 995 ft 130 kts 82°
2026-04-22 17:07 49.43362 -2.64837 780 ft 124 kts 87°
2026-04-22 17:07 49.43327 -2.63499 571 ft 127 kts 91°
2026-04-22 17:07 49.43406 -2.62161 479 ft 124 kts 81°
2026-04-22 17:08 49.43474 -2.60879 332 ft 113 kts 84°
2026-04-22 17:08 49.43502 -2.59984 343 ft 44 kts 88°
2026-04-22 17:08 49.43495 -2.59876 352 ft 4 kts 161°
2026-04-22 17:08 49.43416 -2.59860 344 ft 15 kts 179°
2026-04-22 17:09 49.43348 -2.59768 345 ft 17 kts 82°
2026-04-22 17:09 49.43337 -2.59692 345 ft 5 kts 187°
2026-04-22 17:09 49.43308 -2.59692 345 ft 7 kts 178°
2026-04-22 17:09 49.43260 -2.59688 345 ft 0 kts 177°
2026-04-22 17:10 49.43257 -2.59688 345 ft 0 kts 177°
2026-04-22 17:20 49.43258 -2.59688 345 ft 0 kts 177°